SES-4

Last updated on Mon Sep 07 2026 00:02:58 GMT+0000 (Coordinated Universal Time)

1 38087U 12007A 26249.37360125 -.00000183 00000+0 00000+0 0 9997 2 38087 0.0229 35.3627 0002469 131.9438 290.6639 1.00271408 53047
UTC large
Height (km)
Speed (km/s)
/
Latitude / Longitude
Inclination (degrees)
Orbital Period (minutes)
Azimuth
Elevation
Range (km)
Doppler Factor

Next 0 passes for location: London (51.5072 / 0.1276)

No passes found over London.
SES-4